Timeline UpdatesTrip UpdatesNews PostsPvt PostsTravel TipsAdmin PostsConv PostsFollowed PostsChat RequestsBlog PostsPNR Posts

Disclaimer
Search
 
 
Thu Apr 24, 2014 19:12:31 ISTHomeTrainsΣChainsAtlasPNRForumGalleryNewsFAQTripsMembersLoginFeedback
No Recent News for this Train
Other Trains in the News **new
Latest...
.
Sat Feb 02, 2013 (04:11PM)
⇐ Return Journey: Train# 51188

51187/Bhusaval Katni Passenger (UnReserved)

Feb 01 2014 (2:01PM)
Change Departure Station:
Change Arrival Station:
Post a Train Travel TipPost a Train Travel Tip **new
Post a Comment/Question/Picture/VideoPost a Comment/Question/Picture/Video
Pantry/Catering
???
RSA - Rake Sharing
Rake/Coach Composition
Loco
BSL-ET: BSL/ET WAP-4 ET-KTE: ET/KTE WDM-3A
News    PNR    Forum    Time-Table    Availability    Fare Chart    Map    Arr/Dep History    Trips    Gallery    ΣChains    X/O    Timeline    
Travel Time: 16h 30m    65 halts    Distance: 579 km    Avg Speed: 35 km/hr
Type: Passenger
Zone: CR/Central
Departs @ 10:55 (Avg 1h 14m late)
Platform# ???
SMTWTFS
Asirgarh Road/AGQ 
Arrives @ 03:25 +1 night (Avg 3h 27m late)
Platform# ???
SMTWTFS
Katni Junction/KTE 

65 halts. 71 intermediate Stations between Asirgarh Road and Katni Junction

Show ALL intermediate Stations  Show Old Time-Table

#CodeStation NameX/OArrivesAvgDepartsAvgHaltPFDay#KmSpeedElevZoneAddress
1BSLBhusaval Junction (8)  -09:30+37--1-63.437208mCRBhusaval 425201, Maharashtra
2DSKDuskheda (2)X  09:41+4509:42+471m--1-56.747213mCRDuskheda Station, Maharashtra
3SAVSavda (2)X  09:53+4609:54+481m--1-48.048220mCRSavda, Maharashtra
4NBNimbhora  10:05+4710:06+511m--1-39.355229mCRJalgaon, Maharashtra
5RVRaver (2)  10:17+5010:18+551m--1-29.154242mCRJalgaon, Maharashtra
6WGAWaghodaX  10:29+5510:30+1:001m--1-19.244259mCRChorwad, Maharashtra
7BAUBurhanpur (2)X  10:44+5310:45+1:021m21-8.960269mCRBurhanpur, Madhya Pradesh
8AGQ»Asirgarh Road (2)»  10:54+1:0810:55+1:141m--10.068259mCRState Highway 27, Madhya Pradesh
9CDIChandni (2)X  11:04+1:1511:05+1:201m--110.247276mCRNepanagar Rd, Madhya Pradesh
10NPNRNepanagar (2)  11:14+1:2111:15+1:251m--117.350289mCRState Highway 27, Madhya Pradesh
11MWAMandwa (2)X  11:22+1:2511:23+1:271m--123.160317mCRState Highway 27, Madhya Pradesh
12SXASagphata (2)  11:29+1:2811:30+1:281m--129.166350mCRKhandwa, Madhya Pradesh
13DGNDongargaon (2)X  11:37+1:2811:38+1:291m--136.891373mCRBorgaon, Madhya Pradesh
14KDKKohdad (2)X  11:43+1:2911:44+1:291m--144.453344mCRState Highway 15, Madhya Pradesh
15BMABagmar (2)X  11:49+1:3011:50+1:301m--148.890335mCRState Highway 27, Madhya Pradesh
16BRGJBargaon Gujar (2)X  11:54+1:3311:55+1:331m--154.86316mCRKhandwa, Madhya Pradesh
17KNWKhandwa Junction (5)X  12:50+5812:55+1:075m--159.944310mCRKhandwa, Madhya Pradesh
18MTAMathela (2)  13:05+1:1613:06+1:161m--167.356322mWCRKhandwa, Madhya Pradesh
19TLVTalvadiya (2)  13:15+1:1613:16+1:181m--175.771308mWCRKhandwa, Madhya Pradesh
20SGBJSurgaon Banjari (2)  13:26+1:1713:27+1:191m--187.474298mWCRKhandwa, Madhya Pradesh
21CKKDCharkheda Khurd (2)  13:36+1:1913:37+1:211m--198.651274mWCRKhandwa, Madhya Pradesh
22CAERChhanera (2)  13:45+1:2213:46+1:241m--1105.461283mWCRChhanera, Madhya Pradesh
23BRUDBarud (2)X  13:56+1:2413:57+1:251m--1115.557273mWCRKhandwa, Madhya Pradesh
24DRHIDagarhkeri (2)X  14:07+1:2314:08+1:271m--1125.166274mWCRState Highway 15, Madhya Pradesh
25KKNKhirkiya (2)X  14:18+1:2714:19+1:281m21136.048281mWCRSH 15, Madhya Pradesh
26KROKurawan (2)X  14:27+1:2614:29+1:262m--1142.440297mWCRSH 15, Madhya Pradesh
27BRIBhiringi (2)X  14:39+1:2614:40+1:271m--1149.144294mWCRSH 15, Madhya Pradesh
28MUOMasangaon (2)  14:47+1:2614:48+1:271m--1154.251303mWCRSH 15, Madhya Pradesh
29PALPalasner (2)  14:55+1:2614:56+1:261m--1160.244296mWCRHarda, Madhya Pradesh
30HDHarda (3)X  15:06+1:2315:07+1:261m--1167.653289mWCRHarda, Madhya Pradesh
31CRKCharkhera (2)  15:15+1:2715:16+1:281m--1174.653298mWCRBarkalan, Madhya Pradesh
32TBNTimarni (2)  15:24+1:3315:25+1:361m--1181.771308mWCRTimarni, Madhya Pradesh
33CGOChhidgaon (2)X  15:33+1:2915:35+1:292m--1191.235309mWCRHarda, Madhya Pradesh
34PGLPagdhal (2)X  15:42+1:2915:43+1:311m--1195.355317mWCRPagdhal, Madhya Pradesh
35BIFBhaironpur (2)X  15:51+1:3115:52+1:311m--1202.655322mWCRSH 15, Madhya Pradesh
36BPFBanapura (2)  16:00+1:3016:01+1:341m--1209.955314mWCRBanapura, Madhya Pradesh
37DKIDharamkundi (2)  16:10+1:3216:11+1:331m--1218.155314mWCRSH 15, Madhya Pradesh
38KTZKhutwansa (2)X  16:19+1:3116:20+1:311m--1225.538325mWCRSH 15, Madhya Pradesh
39DRADularia (2)O  16:29+1:2916:30+1:321m--1231.112318mWCRItarsi, Madhya Pradesh
40ETItarsi Junction (7)X  17:30+1:0617:50+1:1120m--1243.463329mWCRItarsi 461111, Madhya Pradesh
41GROGurra (2)  18:00+1:4418:02+1:482m--1253.960327mWCRItarsi, Madhya Pradesh
42SQLSontalai (2)  18:11+1:5018:13+2:002m--1262.946329mWCRItarsi, Madhya Pradesh
43BGTABagra Tawa (2)X  18:22+2:0118:24+2:022m--1269.871338mWCRBagra Tawa, Madhya Pradesh
44GMDGuramkhedi (2)  18:35+2:0318:37+2:052m--1282.960337mWCRSohagpur, Madhya Pradesh
45SGPSohagpur (2)XO  18:47+2:0518:49+2:152m--1292.960340mWCRSohagpur, Madhya Pradesh
46SXFSobhapur (2)  18:58+2:1619:00+2:162m--1301.965338mWCRState Highway 22, Madhya Pradesh
47PPIPipariya (3)X  19:08+2:2019:09+2:391m31310.676338mWCRPiparia, Madhya Pradesh
48BKHBankhedi (2)X  19:24+2:3819:25+2:421m--1329.548351mWCRBankheri, Madhya Pradesh
49JHTJunehta (2)X  19:33+2:4119:34+2:411m--1335.961353mWCRState Highway 22, Madhya Pradesh
50SCKRSalichauka Road (2)X  19:44+2:4119:45+2:511m--1346.170355mWCRGadarwara, Madhya Pradesh
51GARGadarwara (2)  19:57+2:5219:58+3:081m11360.065352mWCRNarsinghpur, Madhya Pradesh
52BNEBohani (2)O  20:10+3:0520:11+3:181m21372.945361mWCRNarsinghpur, Madhya Pradesh
53KFYKarapgaon (2)X  20:20+3:1720:21+3:171m--1379.738364mWCRNational Highway 26, Madhya Pradesh
54KYKareli (2)X  20:34+3:1320:35+3:301m11387.943361mWCRKareli, Madhya Pradesh
55NUNarsinghpur (2)  20:58+3:2321:00+3:382m11404.350365mWCRNarsimhapur, Madhya Pradesh
56GPCGhatpindrai (2)X  21:07+3:3921:08+3:481m--1410.137366mWCRGhatpindra, Madhya Pradesh
57BELDBelkhera (2)O  21:17+3:4521:18+3:471m--1415.633367mWCRState Highway 22, Madhya Pradesh
58KKBKarak Bel (2)XO  21:26+3:4521:28+3:492m11420.013375mWCRKarak Bel, Madhya Pradesh
59SRIDShridham (3)O  22:38+2:5122:40+3:072m21435.355373mWCRShridham, Madhya Pradesh
60BMRBikrampur (2)  22:53+3:1222:54+3:141m--1447.258353mWCRBikrampur Dist Narsingpur., Madhya Pradesh
61BHTNBhitoni (2)X  23:06+3:1223:07+3:151m--1458.866377mWCRJabalpur, Madhya Pradesh
62BRGTBheraghat (2)X  23:19+3:1323:20+3:141m--1471.918389mWCRBheraghat, Madhya Pradesh
63MMLMadan Mahal (3)  00:03+2:4300:05+2:432m32485.06428mWCRJabalpur, Madhya Pradesh
64JBPJabalpur Junction (7)X  00:40+2:3400:50+2:4610m--2488.644416mWCRJabalpur, Madhya Pradesh
65ADTLAdhartal (2)  01:01+2:4001:03+2:422m--2496.559393mWCRJabalpur, Madhya Pradesh
66DOEDeori (2)X  01:12+2:4101:14+2:432m--2505.363392mWCRJabalpur, Madhya Pradesh
67GSPRGosalpur (2)X  01:24+2:4201:26+2:442m--2515.974396mWCRJabalpur, Madhya Pradesh
68SHRSihora Road (2)X  01:35+2:4201:37+2:482m--2527.075388mWCRJabalpur, Madhya Pradesh
69DDCEDundi (2)O  01:49+2:5001:51+2:522m--2541.971415mWCRDundi, Madhya Pradesh
70SBDSleemanabad Road (2)X  01:59+2:5002:01+2:532m--2551.441434mWCRSleemanabad, Madhya Pradesh
71SNRRSansarpur (2)  02:11+2:3502:13+2:352m--2558.318436mWCRNational Highway 7, Madhya Pradesh
72NWRNiwar (2)  02:39+2:3402:40+2:351m--2566.069412mWCRPipraundh, Madhya Pradesh
73MDRRMadhavnagar Road (2)X  02:47+2:4502:49+2:452m--2574.19398mWCRMadhavnagar, Madhya Pradesh
74KTE•Katni Junction (6)•  03:25+3:27---2579.2-387mWCRKatni, Madhya Pradesh
Scroll to Top
Scroll to Bottom